Manchester, United Kingdom

2:38 PM BST on September 20, 2017 (GMT +0100)
Manchester

Weather History for EGCC - February, 2013

Change the Weather History Date:

Thursday, February 28, 2013

  Actual Average Record
Temperature  
Mean Temperature 38 °F -  
Max Temperature 51 °F 48 °F 53 °F (1997)
Min Temperature 24 °F 36 °F 24 °F (2013)
Degree Days  
Heating Degree Days 28    
Moisture  
Dew Point 29 °F    
Average Humidity 70    
Maximum Humidity 93    
Minimum Humidity 33    
Precipitation  
Precipitation 0.00 in 0.08 in - ()
Sea Level Pressure  
Sea Level Pressure 30.49 in    
Wind  
Wind Speed 5 mph ()    
Max Wind Speed 17 mph    
Max Gust Speed -    
Visibility 6.0 miles    
Events      
Averages and records for this station are not official NWS values.
T = Trace of Precipitation, MM = Missing Value Source: Averaged Metar Reports

Daily Weather History Graph

Daily Weather History Graph

Search for Another Location

Airport or City:

Trip Planner

Search our weather history database for the weather conditions in past years. The results will help you decide how hot, cold, wet, or windy it might be!

Date:

Astronomy

Feb. 28, 2013 Rise Set
Actual Time 6:58 AM GMT 5:45 PM GMT
Civil Twilight 6:23 AM GMT 6:20 PM GMT
Nautical Twilight 5:43 AM GMT 7:00 PM GMT
Astronomical Twilight 5:03 AM GMT 7:41 PM GMT
Moon 9:32 PM GMT (2/28) 7:29 AM GMT (2/28)
Length of Visible Light 11h 56m
Length of Day
10h 46m
Waning Gibbous, 92% of the Moon is Illuminated
Feb 28
Waning Gibbous
Mar 4
Last Quarter
Mar 11
New
Mar 19
First Quarter
Mar 27
Full

Hourly Weather History & Observations

Time (GMT) Temp. Windchill Dew Point Humidity Pressure Visibility Wind Dir Wind Speed Gust Speed Precip Events Conditions
12:20 AM 30.2 °F 26.7 °F 28.4 °F 93% 30.57 in - ENE 3.5 mph - N/A   Clear
12:50 AM 30.2 °F 25.4 °F 26.6 °F 86% 30.57 in - NE 4.6 mph - N/A   Clear
1:20 AM 30.2 °F 25.4 °F 26.6 °F 86% 30.57 in - ENE 4.6 mph - N/A   Clear
1:50 AM 30.2 °F 25.4 °F 26.6 °F 86% 30.57 in - ENE 4.6 mph - N/A   Clear
2:20 AM 30.2 °F 26.7 °F 26.6 °F 86% 30.54 in - ENE 3.5 mph - N/A   Clear
2:50 AM 32.0 °F - 28.4 °F 87% 30.54 in 6.2 mi NE 2.3 mph - N/A   Unknown
3:20 AM 32.0 °F - 28.4 °F 87% 30.51 in 6.2 mi NE 2.3 mph - N/A   Unknown
3:50 AM 26.6 °F - 24.8 °F 93% 30.51 in 5.6 mi Calm Calm - N/A   Unknown
4:20 AM 26.6 °F - 24.8 °F 93% 30.51 in - Calm Calm - N/A   Clear
4:50 AM 26.6 °F - 24.8 °F 93% 30.51 in - NW 2.3 mph - N/A   Clear
5:20 AM 28.4 °F - 26.6 °F 93% 30.51 in - Variable 2.3 mph - N/A   Clear
5:50 AM 26.6 °F 22.6 °F 23.0 °F 86% 30.51 in - NE 3.5 mph - N/A   Clear
6:20 AM 26.6 °F - 24.8 °F 93% 30.51 in - Variable 2.3 mph - N/A   Clear
6:50 AM 28.4 °F - 24.8 °F 86% 30.51 in - Variable 2.3 mph - N/A   Clear
7:20 AM 24.8 °F 20.5 °F 23.0 °F 93% 30.51 in 5.6 mi Variable 3.5 mph - N/A   Unknown
7:50 AM 28.4 °F 24.6 °F 26.6 °F 93% 30.51 in 5.6 mi Variable 3.5 mph - N/A   Unknown
8:20 AM 32.0 °F 28.7 °F 28.4 °F 87% 30.51 in - ENE 3.5 mph - N/A   Clear
8:50 AM 37.4 °F 34.9 °F 30.2 °F 75% 30.51 in 5.6 mi North 3.5 mph - N/A   Unknown
9:20 AM 39.2 °F 37.0 °F 30.2 °F 70% 30.51 in 5.6 mi Variable 3.5 mph - N/A   Unknown
9:50 AM 41.0 °F - 30.2 °F 65% 30.51 in 5.6 mi Variable 2.3 mph - N/A   Unknown
10:20 AM 41.0 °F 38.0 °F 28.4 °F 61% 30.51 in 5.6 mi NNW 4.6 mph - N/A   Unknown
10:50 AM 41.0 °F 39.0 °F 28.4 °F 61% 30.51 in 5.6 mi Variable 3.5 mph - N/A   Unknown
11:20 AM 42.8 °F 40.1 °F 30.2 °F 61% 30.51 in - NNW 4.6 mph - N/A   Clear
11:50 AM 46.4 °F 42.9 °F 28.4 °F 50% 30.48 in - NW 6.9 mph - N/A   Clear
12:20 PM 50.0 °F - 24.8 °F 37% 30.48 in - NNE 11.5 mph - N/A   Clear
12:50 PM 50.0 °F - 24.8 °F 37% 30.45 in - NNE 11.5 mph - N/A   Clear
1:20 PM 50.0 °F - 23.0 °F 35% 30.45 in - NNE 13.8 mph - N/A   Clear
1:50 PM 50.0 °F - 24.8 °F 37% 30.45 in - NE 10.4 mph - N/A   Clear
2:20 PM 50.0 °F - 23.0 °F 35% 30.45 in - North 6.9 mph - N/A   Clear
2:50 PM 51.8 °F - 23.0 °F 33% 30.45 in - NE 8.1 mph - N/A   Clear
3:20 PM 51.8 °F - 23.0 °F 33% 30.45 in - NNE 9.2 mph - N/A   Clear
3:50 PM 50.0 °F - 24.8 °F 37% 30.45 in - NE 8.1 mph - N/A   Clear
4:20 PM 48.2 °F - 26.6 °F 43% 30.45 in - NNE 11.5 mph - N/A   Clear
4:50 PM 46.4 °F 40.7 °F 26.6 °F 46% 30.45 in - NE 12.7 mph - N/A   Clear
5:20 PM 44.6 °F 38.4 °F 28.4 °F 53% 30.45 in - NE 12.7 mph - N/A   Clear
5:50 PM 42.8 °F 35.8 °F 30.2 °F 61% 30.45 in - NE 13.8 mph - N/A   Clear
6:20 PM 42.8 °F 36.6 °F 30.2 °F 61% 30.45 in - NNE 11.5 mph - N/A   Clear
6:50 PM 42.8 °F 35.4 °F 32.0 °F 66% 30.45 in - NNE 15.0 mph - N/A   Clear
7:20 PM 42.8 °F 36.2 °F 33.8 °F 70% 30.45 in 6.2 mi NNE 12.7 mph - N/A   Partly Cloudy
7:50 PM 42.8 °F 38.0 °F 35.6 °F 76% 30.48 in 6.2 mi NE 8.1 mph - N/A   Scattered Clouds
8:20 PM 42.8 °F 34.8 °F 35.6 °F 76% 30.48 in 6.2 mi NE 17.3 mph - N/A   Mostly Cloudy
8:50 PM 42.8 °F 36.2 °F 37.4 °F 81% 30.48 in 6.2 mi NE 12.7 mph - N/A   Mostly Cloudy
9:20 PM 42.8 °F 36.6 °F 37.4 °F 81% 30.48 in 6.2 mi NE 11.5 mph - N/A   Mostly Cloudy
9:50 PM 42.8 °F 39.3 °F 37.4 °F 81% 30.48 in 6.2 mi NE 5.8 mph - N/A   Mostly Cloudy
10:20 PM 42.8 °F 38.6 °F 37.4 °F 81% 30.48 in 6.2 mi NNE 6.9 mph - N/A   Mostly Cloudy
10:50 PM 41.0 °F 34.7 °F 35.6 °F 81% 30.48 in 6.2 mi NNE 10.4 mph - N/A   Mostly Cloudy
11:20 PM 42.8 °F 37.5 °F 35.6 °F 76% 30.48 in 6.2 mi NNE 9.2 mph - N/A   Mostly Cloudy
11:50 PM 42.8 °F 37.0 °F 35.6 °F 76% 30.48 in 6.2 mi NNE 10.4 mph - N/A   Mostly Cloudy